Regional Weather Roundup
Issued by NWS Columbia, SC

Home | Current Version | Previous Version | Text Only | Print | Product List | Glossary On
Versions: 1 2 3 4 5 6 7 8 9 10 11 12 13 14 15 16 17 18 19 20 21 22 23 24 25 26 27 28 29 30 31 32 33 34 35 36 37 38 39 40 41 42 43 44 45 46 47 48 49 50
000
ASUS42 KCAE 211910
RWRCAE
REGIONAL WEATHER ROUNDUP
NATIONAL WEATHER SERVICE COLUMBIA SC
300 PM EDT THU AUG 21 2014

NOTE: "FAIR" INDICATES FEW OR NO CLOUDS BELOW 12,000 FEET WITH NO
SIGNIFICANT WEATHER AND/OR OBSTRUCTIONS TO VISIBILITY.

NOT ALL STATIONS ARE QUALITY CONTROLLED BY THE NATIONAL
WEATHER SERVICE. USE DATA WITH CAUTION...ESPECIALLY
DEWPOINT OBSERVATIONS.

SCZ001>056-GAZ040-063>065-077-212000-
...UPSTATE SOUTH CAROLINA...

CITY           SKY/WX    TMP DP  RH WIND       PRES   REMARKS
ANDERSON       SUNNY     93  64  38 S7        30.11F
LIBERTY        FAIR      92  87  86 S6        30.12F HX 126
SPARTANBURG    FAIR      93  64  38 N6        30.11S HX  95
CLEMSON        SUNNY     93  64  38 VRB5      30.13F
GREENVILLE     SUNNY     93  65  39 NE7       30.14S HX  95
GREENWOOD      SUNNY     97  62  31 VRB5      30.11F HX  98
GREER          SUNNY     92  68  45 VRB5      30.12S HX  96
ROCK HILL      SUNNY     91  65  41 NW6       30.11S
CHESTER        FAIR      95  55  26 NW5       30.11S
LAURENS        FAIR      91  48  22 N3        30.11F


...CENTRAL SOUTH CAROLINA...

CITY           SKY/WX    TMP DP  RH WIND       PRES   REMARKS
COLUMBIA APT   MOSUNNY   97  63  32 NE7       30.06F HX  98
COLUMBIA OWENS SUNNY     97  62  31 N7        30.07F HX  98
DARLINGTON     SUNNY     95  68  41 NE7       30.05F HX  99
FLORENCE       SUNNY     96  66  37 CALM      30.04F HX  99
MCENTIRE ANGB  MOSUNNY   95  65  37 NE5       30.06F HX  98
ORANGEBURG     SUNNY     96  61  31 N5        30.06F HX  96
SUMTER SHAW    SUNNY     94  71  46 VRB6      30.05F HX 101
NEWBERRY       FAIR      95  55  26 N10       30.11F
AIKEN          FAIR      97  68  38 NE3       30.11S HX 101
BARNWELL       FAIR      97  64  34 NE10G16   30.07S HX  99
MANNING        FAIR      95  72  46 N3        30.04F HX 103
CAMDEN         FAIR      93  64  38 E5        30.08S HX  95
LANCASTER      FAIR      93  64  38 NW6       30.09S HX  95
WINNSBORO      FAIR      91  68  46 NE5       30.09S HX  95


...EASTERN AND COASTAL SOUTH CAROLINA...

CITY           SKY/WX    TMP DP  RH WIND       PRES   REMARKS
MYRTLE BEACH   PTSUNNY   90  79  70 S12       30.03S HX 105
N MYRTLE BCH   TSTM      80  69  69 SE8G20    30.03F
CONWAY         FAIR      93  73  52 W6        30.02F HX 102
MARION         FAIR      91  70  49 NW3       30.03F HX  97
HARTSVILLE     FAIR      97   1   3 N5        30.07F
FLORENCE       SUNNY     96  66  37 CALM      30.04F HX  99
DARLINGTON     SUNNY     95  68  41 NE7       30.05F HX  99
CHARLESTON APT MOSUNNY   94  73  50 NW7       30.03F HX 103
MOUNT PLEASANT FAIR      95  75  52 W6        30.03F HX 107
WALTERBORO     PTCLDY    95  64  36 NW5       30.05F HX  97
BEAUFORT       MOSUNNY   95  74  50 N7        30.04F HX 105


...EASTERN GEORGIA...

CITY           SKY/WX    TMP DP  RH WIND       PRES   REMARKS
AUGUSTA BUSH F SUNNY     97  65  34 N9        30.06F HX  99
AUGUSTA DANIEL SUNNY     97  60  29 NW6       30.09F HX  97
THOMSON        SUNNY     96  74  48 NE5       30.13F HX 106
WASHINGTON     FAIR      99  68  36 NW3       30.10S HX 104
CLAXTON        FAIR      95  73  49 NW8       30.06F HX 105
SYLVANIA       CLEAR     96  71  43 CALM      30.07F HX 103
STATESBORO     SUNNY     94  69  44 N5        30.07F HX  99
SAVANNAH       MOSUNNY   96  70  42 NW10      30.05F HX 102


...SOUTHERN NORTH CAROLINA...

CITY           SKY/WX    TMP DP  RH WIND       PRES   REMARKS
CHARLOTTE      MOSUNNY   93  62  35 VRB5      30.11S
MONROE         SUNNY     93  64  38 VRB6      30.08F
WADESBORO      CLEAR     93  61  34 NW7       30.08S HAZE
ROCKINGHAM     CLEAR     92  63  38 N7        30.06F
RUTHERFORDTON  SUNNY     88  69  53 S6        30.13F
ASHEVILLE      MOSUNNY   86  66  51 N8G16     30.19F

$$


USA.gov is the U.S. government's official web portal to all federal, state and local government web resources and services.